Regional Weather Roundup
Issued by NWS Portland, ME

Home | Current Version | Previous Version | Text Only | Print | Product List | Glossary On
Versions: 1 2 3 4 5 6 7 8 9 10 11 12 13 14 15 16 17 18 19 20 21 22 23 24 25 26 27 28 29 30 31 32 33 34 35 36 37 38 39 40 41 42 43 44 45 46 47 48 49 50
000
ASUS41 KGYX 300110
RWRGYX
WEATHER ROUNDUP FOR MAINE AND NEW HAMPSHIRE
NATIONAL WEATHER SERVICE GRAY ME
900 PM EDT FRI MAY 29 2015

MEZ002-005-006-010-012-015-018-020-021-024-026-027-029-300200-
MAINE

CITY           SKY/WX    TMP DP  RH WIND       PRES   REMARKS
PORTLAND       FOG       60  59  96 S7        30.25F VSB 1/4
SANFORD        CLOUDY    57  54  88 CALM      30.25F
BAR HARBOR     PTCLDY    59  57  94 SW7       30.25S
WISCASSET      CLOUDY    62  59  90 S5        30.27S
ROCKLAND       CLOUDY    57  55  94 SW3       30.25S VSB 1/2
FRYEBURG       MOCLDY    66  57  72 VRB3      30.23R
LEWISTONAUBURN CLOUDY    59  55  88 SE6       30.24F
AUGUSTA        CLOUDY    62  58  86 S8        30.25R
WATERVILLE     PTCLDY    64  57  77 S5        30.21R
BANGOR         MOCLDY    63  59  87 S6        30.23F
GREENVILLE       N/A     64  58  80 VRB5      30.20S
MILLINOCKET    PTCLDY    68  60  75 VRB6      30.20F
HOULTON        PTCLDY    66  57  72 S5        30.18F
PRESQUE ISLE   MOCLDY    68  52  56 S8        30.16F
FRENCHVILLE    MOCLDY    65  53  65 SE12      30.14F
CARIBOU        MOCLDY    67  54  63 S7        30.15F
$$

NHZ002-005-008-009-011-012-014-300200-
NEW HAMPSHIRE

CITY           SKY/WX    TMP DP  RH WIND       PRES   REMARKS
PORTSMOUTH     FOG       57  56  95 SE7       30.23S VSB 5/8
ROCHESTER      MOCLDY    62  57  83 SE3       30.23S
NASHUA         MOCLDY    72  62  70 S6        30.23S
MANCHESTER     CLOUDY    71  60  68 SE6       30.21S
CONCORD        MOCLDY    69  60  73 SE7       30.22S
LACONIA        MOCLDY    70  57  64 SE8       30.19R
PLYMOUTH       FAIR      69  64  85 E5        30.21R
BERLIN         CLOUDY    69  58  67 S6        30.20S
WHITEFIELD     CLOUDY    65  58  78 CALM      30.19S
JAFFREY        CLOUDY    68  60  75 SE3       30.24S
KEENE          CLOUDY    66  61  82 CALM      30.21S
LEBANON        CLOUDY    69  59  70 S5        30.18R
MT WASHINGTON  FOG       48  48 100 SW20        N/A  VSB 1/8
$$

VTZ005-007-008-300200-
VERMONT

CITY           SKY/WX    TMP DP  RH WIND       PRES   REMARKS
ST JOHNSBURY     N/A     69  56  62 MISG      30.16R
MONTPELIER     MOCLDY    66  56  70 CALM      30.22S
BURLINGTON     MOCLDY    73  53  49 S8        30.13S
$$

MAZ007-012-024-CTZ003-RIZ002-NYZ038-NYZ072-300200-
SOUTHERN NEW ENGLAND AND NY

CITY           SKY/WX    TMP DP  RH WIND       PRES   REMARKS
BOSTON         CLOUDY    56  55  97 NE7       30.25S
WORCESTER      CLOUDY    71  58  63 SE10      30.25S
NANTUCKET      CLOUDY    61  58  90 CALM      30.27R FOG
PROVIDENCE     MOCLDY    64  58  80 S5        30.26S
HARTFORD       CLOUDY    74  56  53 S10       30.21R
ALBANY         MOCLDY    76  54  46 S9        30.17S
NEW YORK CITY  MOCLDY    69  57  65 S12       30.23R
$$

ANZ081-ANZ082-ANZ150-NHZ014-MEZ023>029-300200-
COASTAL MARINE OBSERVATIONS

STATION/POSITION TIME  TEMP    WIND        PRES    WAVE
                       AIR SEA DIR/SP/G            HT/PER
                 (UTC) (F)     (DEG/KT/KT) (MB)    (FT/S)
MOUNT DESERT ROC 0100   52     230/ 11/ 12   N/A
MATINICUS ROCK   0000   54     240/  7/  8   N/A
ISLE OF SHOALS   0000   54     120/ 12/ 13   N/A
JEFFREYS LEDGE   0033      52                N/A     2/ 6
CASHES LEDGE BUO 0050   56 53                N/A     2/ 8
GEORGES BANK BUO 2350   57 54  110/  2/  2   N/A     3/ 9
$$

.............KEY..............
   WCI - WIND CHILL
   TC  - TEMPERATURE IN CELSIUS
   VSB - VISIBILITY IN MILES
   HX  - HEAT INDEX
   FAIR- INDICATES FEW OR NO CLOUDS BELOW 12,000 FT, WITH NO
         SIGNIFICANT WEATHER AND/OR OBSTRUCTIONS TO VISIBILITY.





USA.gov is the U.S. government's official web portal to all federal, state and local government web resources and services.